Other Surface Observations
Issued by NWS

Home | Current Version | Previous Version | Text Only | Print | Product List | Glossary On
Versions: 1 2 3 4 5 6 7 8 9 10 11 12 13 14 15 16 17 18 19 20 21 22 23 24 25 26 27 28 29 30 31 32 33 34 35 36 37 38 39 40 41 42 43 44 45 46 47 48 49 50
000
SXUS52 KTAE 301218
OSOTAE
OSOTAE
North Florida/South Alabama/Southwest Georgia Weather Roundup
National Weather Service Tallahassee Florida
800 AM EDT TUE MAY 30 2017

Note: "fair" indicates few or no clouds below 12,000 feet with no
significant weather and/or obstructions to visibility.

!FLZ017-115-028-034-025-301300
...North Florida...

CITY           SKY/WX    TMP DP  RH WIND       PRES   REMARKS
TALLAHASSEE    CLOUDY    76  74  93 CALM      30.11R
APALACHICOLA     N/A    N/A N/A N/A MISG      30.10R
PERRY          MOSUNNY   76  74  92 CALM      30.13R FOG
CROSS CITY     CLOUDY    73  72  94 N5        30.14R FOG
JACKSONVILLE   CLOUDY    77  74  90 W6        30.11R
$$

!FLZ112-006-005-002-011-301300
...Florida Panhandle...

CITY           SKY/WX    TMP DP  RH WIND       PRES   REMARKS
MARIANNA       CLOUDY    76  74  93 W5        30.11R
BONIFAY        NOT AVBL
PANAMA CITY NW FAIR      76  75  97 CALM      30.10S FOG
TYNDALL AFB    SUNNY     77  76  96 CALM      30.11R FOG
TYND DRONE APT FAIR      77  77  98 NW3       30.11R FOG
DE FUNIAK SPR  FAIR      73  69  90 NW6       30.15R
EGLIN AFB      PTSUNNY   74  71  91 N7        30.12R
DESTIN         CLOUDY    78  78 100 N6        30.13R
HURLBURT       PTSUNNY   73  72  94 N5        30.12R
CRESTVIEW      CLOUDY    72  66  81 N6        30.15R
PENSACOLA      PTSUNNY   74  68  81 N7        30.13R
$$

!ALZ063-066-301300
...South Alabama...

CITY           SKY/WX    TMP DP  RH WIND       PRES   REMARKS
DOTHAN         CLOUDY    75  69  81 NW10      30.17R
OZARK CAIRNS   CLOUDY    74  68  81 NW7       30.14R
FT RUCKER HELI CLOUDY    73  68  84 NW3       30.14R
RUCKER HELI 3  PTSUNNY   73  66  79 NW7       30.13R
RUCKER HELI 2  FAIR      74  67  80 NW6       30.14R
FLORALA APT    CLOUDY    72  64  76 VRB5      30.16R
ANDALUSIA      CLOUDY    74  64  71 W5        30.13R
TROY           CLOUDY    69  64  84 NW12      30.12F
EUFALA         FAIR      75  70  84 CALM      30.11R
MOBILE         CLOUDY    70  66  87 N5        30.15R
$$

!GAZ120>161-301300
...Southwest and South Central Georgia...

CITY           SKY/WX    TMP DP  RH WIND       PRES   REMARKS
THOMASVILLE    FAIR      77  77 100 NW5       30.13R FOG
BAINBRIDGE     CLOUDY    77  73  88 CALM      30.10F
MOODY AFB      PTSUNNY   75  72  88 CALM      30.11R
VALDOSTA       PTSUNNY   75  73  93 CALM      30.12R FOG
MOULTRIE       CLOUDY    75  72  88 NW3       30.13R FOG
BLAKELY        CLOUDY    77  73  88 SW3       30.11S
ALBANY         SUNNY     76  74  93 NW3       30.13R
TIFTON         FAIR      76  75  97 NW10      30.12R
FITZGERALD     FAIR      76  73  93 CALM      30.14R
CORDELE        FAIR      78  73  85 CALM      30.14R
AMERICUS       FAIR      72  72 100 W3        30.15R
HOMERVILLE     FAIR     N/A N/A N/A CALM      30.12R HAZE
$$

!GMZ750-755-770-775-301300
...Coastal and Buoy Obs...

STATION/POSITION TIME  TEMP    WIND        PRES    VSBY  WAVE
                       AIR SEA DIR/SP/G                  HT/PER
                 (UTC) (F)     (DEG/KT/KT) (MB)    (MI)  (FT/S)
KEATON BEACH     1200   76      80/  2/  3 1019.9R
CEDAR KEY        1200   77     350/  2/  4 1020.8R
C TOWER          1200   78     360/  8/  8 1019.9R
APALACHICOLA BUO NOT AVBL
PANAMA CITY BUOY NOT AVBL
MOBILE BUOY      NOT AVBL
ORANGE BCH AL BU NOT AVBL
$$




USA.gov is the U.S. government's official web portal to all federal, state and local government web resources and services.